星链-5529 (STARLINK-5529 )

导读

STARLINK-5529是美国SpaceX星链星座的一员,于2023年5月10日发射入轨。作为低轨互联网通信卫星,它运行在约550公里近地轨道,配备相控阵天线与激光星间链路,可提供低时延宽带互联网服务,支持全球覆盖与手机直连能力,是星链大规模星座组网部署的组成部分,服务全球偏远地区网络接入与应急通信需求。

基本信息
目录编号:
56495
目录名称:
STARLINK-5529
国际标识:
2023-064AZ
轨道中心:
EARTH
卫星名称:
星链-5529
卫星全名:
星链-5529 (STARLINK-5529 )
卫星状态:
在轨 (已飞行1132 天)
发射日期:
2023-05-10 UTC
国别 :
美国 (US)
星等 :
--
轨道信息
数据来源 国际轨道数据 AOE轨道数据
星历时间 2026-06-15T05:17:30+0800
7小时前
查看轨道信息
2026-06-14T02:00:00+0800
1天前
查看轨道信息
半长轴 6950.196km 6950.188km
偏心率 0.0003125 0.0002902
轨道倾角 69.999° 69.998°
近地点辐角 270.623° 269.350°
升交点赤经 219.305° 222.171°
平近点角 89.458° 78.736°
近地点 569.887km 570.034km
远地点 574.231km 574.068km
周期 96.107分钟 96.107分钟
每日圈数 14.98329 14.983319
详细信息
固有亮度:
5
最大亮度:
2.5
卫星平台:
Starlink v1.5
覆盖范围:
全球
运营商:
太空探索技术公司
运营商所在国:
美国
制造商(研发单位):
太空探索技术公司
制造商所在国:
美国
使用方式:
暂无
卫星简介
星链(Starlink)计划是由太空探索技术公司(SpaceX)提出的一个巨型低轨卫星互联网星座项目,计划在2019年至2024年间在太空搭建由约1.2万颗卫星组成的“星链”网络,其中1584颗将部署在地球上空550千米处的近地轨道,并从2020年开始工作。该卫星仍在工作。
2D轨道图
3D轨道图
轨道高度分析图
轨道倾角分析图
轨道综合分析图
查看轨道综合分析图